STARLINK-36385, 67717

Orbit data source: Space-Track

STARLINK-36385, 67717 is a payload satellite owned by SpaceX/Seattle (US) in SSO that was launched on Sat, 07 Feb 2026 UTC via an FALCON 9 launch vehicle from the Air Force Western Test Range (AFWTR). Payload-class satellites include a variety of spacecraft equipped with specific instruments for various scientific and technological missions. These include communications satellites like Starlink; space stations such as the ISS; scientific satellites like the Hubble; Earth observation satellites from companies like Planet Labs, Umbra, and HawkEye 360; GPS; miniature CubeSats for education and research; and military/defense satellites.

Loading next visibility...
Identifier
67717, 2026-025AA
Orbit
SSO
Country
Flag of USUS
Related business
Manufacturer
SpaceX/Seattle
Mission
Operational spacecraft
Bus & Motor
STARLINK V2MO, Unknown motor
Mass
575 kg wet, ~530 kg dry
Launch date (UTC)
2026-02-07 (2 months ago)
Launch vehicle
FALCON 9
Launch site
Air Force Western Test Range (AFWTR)
Object type
Payload
Rocket body
Debris
Shape & HBR
Unknown shape, 17.7 m
Radar Cross Section
RCS unknown

Expand to show TLE details & history
Last TLE update: 15 hours ago

TLE from 15 hours ago
0 STARLINK-36385
1 67717U 26025AA  26103.72364641  .00017538  00000-0  57328-3 0  9990
2 67717  97.2834 215.9471 0000719 307.0316  53.0860 15.31782923 11385
Epoch: 2026-04-13T17:22Z
TLE epoch observation values (Epoch: 2026-04-13T17:22:03.049Z)
Latitude
-0.00004°
Longitude
113.52425°
Altitude
473.307 km
Speed
7.629 km/s
True Right ascension
14h 23m 47s
True Declination
0° 00' 00"
Sunlit
Object was in full shadow at epoch
Visualization orbit readout
Latitude
Unknown
Longitude
Unknown
Altitude
Unknown
Speed
Unknown
Apparent Right ascension
Unknown
Apparent Declination
Unknown
Sunlit
N/A
Visualization observer readout
Local Sidereal Time
15:12:18
Azimuth
Unknown
Elevation
Unknown
Doppler factor
Unknown
Orbital elements
Apogee altitude
467.93 km
Perigee altitude
466.946 km
Semi-major axis
6,845.575 km
Eccentricity
0.00007
Inclination
97.2834°
RAAN
215.9471°
Arg. of periapsis
307.0316°
True anomaly
53.09259°
Mean anomaly
53.086°
Eccentric anomaly
53.08929°
Mean motion
3.83202 °/min
Orbital period
93.95 mins
BSTAR
0.00057328
Loading maneuver chart data...
Computing Atmospheric mass density...
Loading historical data...
Loading historical data...
Loading historical data...
Loading historical data...
Loading historical data...
Loading historical data...
Loading historical data...

Documentation

Showing up to 5 results
|